Regional Weather Roundup
Issued by NWS

Home | Current Version | Previous Version | Text Only | Print | Product List | Glossary On
Versions: 1 2 3 4 5 6 7 8 9 10 11 12 13 14 15 16 17 18 19 20 21 22 23 24 25 26 27 28 29 30 31 32 33 34 35 36 37 38 39 40 41 42 43 44 45 46 47 48 49 50
000
ASUS45 KPSR 041710
RWRAZ

ARIZONA HOURLY REGIONAL WEATHER ROUNDUP
NATIONAL WEATHER SERVICE PHOENIX AZ
1000 AM MST SAT JUL 04 2015

NOTE: FAIR INDICATES FEW OR NO CLOUDS BELOW 12,000 FEET WITH NO
SIGNIFICANT WEATHER AND/OR OBSTRUCTIONS TO VISIBILITY.

AZZ001>003-036-041800-
NORTHWEST ARIZONA

CITY           SKY/WX    TMP DP  RH WIND       PRES   REMARKS
BULLHEAD CITY  CLOUDY    97  55  24 SW5       29.79R
KINGMAN        PTSUNNY   90  46  21 SW9       29.98F
$$

AZZ004>008-015-016-018-041800-
NORTH CENTRAL ARIZONA

CITY           SKY/WX    TMP DP  RH WIND       PRES   REMARKS
GRAND CANYON   CLOUDY    67  54  63 SE5       30.23F
WILLIAMS       PTSUNNY   73  54  49 SE9       30.29F
PRESCOTT       PTSUNNY   79  54  41 CALM      30.11F
FLAGSTAFF      MOSUNNY   70  56  61 VRB5      30.25F
PAYSON         MOSUNNY   82  55  39 SW10      30.15R
PAGE           PTSUNNY   85  54  34 VRB5      30.04F
$$

AZZ009>014-017-041800-
NORTHEAST ARIZONA

CITY           SKY/WX    TMP DP  RH WIND       PRES   REMARKS
WINSLOW        PTSUNNY   75  61  61 SE8       30.13F
SAINT JOHNS    CLOUDY    73  60  63 N3        30.17S
WINDOW ROCK    MOSUNNY   78  52  40 VRB3      30.23F
SHOW LOW       PTSUNNY   73  55  53 SW12      30.23S
$$

AZZ023-041800-
GREATER PHOENIX AREA

CITY           SKY/WX    TMP DP  RH WIND       PRES   REMARKS
PHOENIX        PTSUNNY   96  61  31 VRB6      29.81S
BUCKEYE        CLOUDY    93  59  31 S6        29.84R
GLENDALE       PTSUNNY   97  64  34 SE6       29.83S
LUKE AFB       PTSUNNY   97  61  30 VRB1      29.81S
DEER VALLEY    PTSUNNY   94  59  31 S9        29.83S
SCOTTSDALE     MOSUNNY   96  58  27 SE7       29.85S
MESA-FALCON    PTSUNNY   95  59  30 SE12      29.84R
MESA-GATEWAY   MOSUNNY   91  63  38 SE10      29.86S
CHANDLER       PTSUNNY   95  64  36 VRB6      29.84R
$$

AZZ027-028-041800-
SOUTHWEST MARICOPA COUNTY AND PINAL COUNTY

CITY           SKY/WX    TMP DP  RH WIND       PRES   REMARKS
CASA GRANDE    PTSUNNY   93  63  36 CALM      29.85R
GILA BEND      CLOUDY    88  63  43 VRB2      29.82R
$$

AZZ503-504-507>509-041800-
SOUTHEAST ARIZONA

CITY           SKY/WX    TMP DP  RH WIND       PRES   REMARKS
TUCSON         CLOUDY    88  59  37 S13       29.98S
DAVIS-MONTHAN  CLOUDY    85  63  46 S8        29.97S
RYAN FIELD     MOSUNNY   91  59  33 SW15      29.96R
NOGALES        LGT RAIN  75  58  55 S9        30.07F
SIERRA VISTA   CLOUDY    72  60  65 E7        30.12R
DOUGLAS        CLOUDY    77  63  61 S9        30.09S
SAFFORD        CLOUDY    87  60  40 S13       29.99F
$$

AZZ020-021-025-026-031-041800-
SOUTHWEST ARIZONA

CITY           SKY/WX    TMP DP  RH WIND       PRES   REMARKS
YUMA           MOSUNNY   99  60  27 S8        29.75S
$$

CAZ031-033-041-043-047-048-061-041800-
SOUTHERN CALIFORNIA

CITY           SKY/WX    TMP DP  RH WIND       PRES   REMARKS
DOWNTOWN L.A.  MOSUNNY   71  60  68 CALM      29.89F
L.A. AIRPORT   CLOUDY    66  60  81 W10       29.91S
SAN DIEGO      CLOUDY    69  60  73 W7        29.92S
BURBANK        SUNNY     73  58  59 E6        29.89F
ONTARIO        MOSUNNY   74  57  55 VRB3      29.89F
RIVERSIDE      SUNNY     75  57  53 VRB5      29.89F
PALM SPRINGS   SUNNY     99  52  20 W3        29.75S
EL CENTRO NAS  MOSUNNY   98  53  22 E5        29.74F
IMPERIAL       MOSUNNY   99  55  23 VRB5      29.71F
BLYTHE         MOSUNNY   97  60  29 S6        29.75S
NEEDLES        CLOUDY    98  55  23 SE10      29.79R
$$

NVZ020-UTZ003-041800-
SOUTHERN NEVADA-UTAH

CITY           SKY/WX    TMP DP  RH WIND       PRES   REMARKS
LAS VEGAS      CLOUDY    96  43  16 SW14      29.83F
SALT LAKE CITY PTSUNNY   88  50  27 SE8       29.94F
$$

NMZ009-TXZ055-041800-
NEW MEXICO-WEST TEXAS

CITY           SKY/WX    TMP DP  RH WIND       PRES   REMARKS
ALBUQUERQUE    MOSUNNY   80  56  43 S7        30.16F
EL PASO        PTSUNNY   85  57  38 CALM      30.05F
$$


........................KEY........................
SKY/WX - SKY CONDITION/WEATHER
TMP    - TEMPERATURE IN FAHRENHEIT
DP     - DEW POINT IN FAHRENHEIT
RH     - RELATIVE HUMIDITY IN PERCENT
WIND   - DIRECTION AND SPEED IN MILES PER HOUR (MPH)
VRB    - VARIABLE WIND DIRECTION
PRES   - MEAN SEA LEVEL PRESSURE IN INCHES OF MERCURY
         F - FALLING PRESSURE   R - RISING PRESSURE
         S - STEADY PRESSURE
VSB    - VISIBILITY IN MILES
HX     - HEAT INDEX IN FAHRENHEIT
WCI    - WIND CHILL INDEX IN FAHRENHEIT
TC     - TEMPERATURE IN CELSIUS WHICH IS ALSO KNOWN AS
         TEMPERATURE IN CENTIGRADE
AFB    - AIR FORCE BASE
         LUKE AFB IS LUKE AIR FORCE BASE
         DAVIS-MONTHAN IS DAVIS-MONTHAN AIR FORCE BASE
NAS    - NAVAL AIR STATION
         EL CENTRO NAS IS EL CENTRO NAVAL AIR STATION
N/A    - NOT AVAILABLE



USA.gov is the U.S. government's official web portal to all federal, state and local government web resources and services.